TimeMDT,TemperatureF,Dew PointF,Humidity,Sea Level PressureIn,VisibilityMPH,Wind Direction,Wind SpeedMPH,Gust SpeedMPH,PrecipitationIn,Events,Conditions,WindDirDegrees,DateUTC
12:53 AM,37.0,18.0,46,29.99,10.0,NW,13.8,-,N/A,,Clear,320,2012-10-18 06:53:00
1:53 AM,37.0,18.0,46,30.00,10.0,WNW,17.3,-,N/A,,Clear,290,2012-10-18 07:53:00
2:53 AM,37.0,18.0,46,29.99,10.0,WNW,16.1,-,N/A,,Clear,290,2012-10-18 08:53:00
3:53 AM,37.9,19.0,47,29.99,10.0,WNW,17.3,26.5,N/A,,Clear,300,2012-10-18 09:53:00
4:53 AM,37.9,19.0,47,29.99,10.0,NW,20.7,26.5,N/A,,Clear,310,2012-10-18 10:53:00
5:53 AM,36.0,19.0,50,30.01,10.0,NW,17.3,-,N/A,,Clear,310,2012-10-18 11:53:00
6:53 AM,35.1,18.0,50,30.04,10.0,WNW,13.8,-,N/A,,Clear,290,2012-10-18 12:53:00
7:53 AM,39.9,16.0,38,30.06,10.0,NW,20.7,-,N/A,,Clear,310,2012-10-18 13:53:00
8:53 AM,46.0,14.0,28,30.06,10.0,NNW,27.6,42.6,N/A,,Clear,330,2012-10-18 14:53:00
9:53 AM,48.9,10.9,22,30.04,9.0,NNW,39.1,50.6,N/A,,Clear,340,2012-10-18 15:53:00
10:43 AM,51.8,10.4,19,30.02,8.0,NNW,39.1,54.1,N/A,,Mostly Cloudy,330,2012-10-18 16:43:00
10:53 AM,52.0,10.0,19,30.02,7.0,NNW,36.8,52.9,N/A,,Mostly Cloudy,330,2012-10-18 16:53:00
11:23 AM,53.6,10.4,18,30.01,1.8,NNW,42.6,55.2,N/A,,Haze,330,2012-10-18 17:23:00
11:44 AM,55.4,10.4,17,30.00,3.0,NW,39.1,57.5,N/A,,Haze,320,2012-10-18 17:44:00
11:50 AM,53.6,10.4,18,30.00,2.5,NNW,43.7,57.5,N/A,,Haze,330,2012-10-18 17:50:00
11:53 AM,54.0,10.0,17,29.99,2.0,NNW,38.0,55.2,N/A,,Haze,330,2012-10-18 17:53:00
11:58 AM,55.4,10.4,17,30.00,3.0,NNW,43.7,57.5,N/A,,Haze,330,2012-10-18 17:58:00
12:53 PM,57.0,9.0,15,29.97,6.0,NW,41.4,54.1,N/A,,Haze,320,2012-10-18 18:53:00
1:06 PM,55.4,8.6,15,29.99,3.0,NNW,39.1,55.2,N/A,,Haze,330,2012-10-18 19:06:00
1:43 PM,57.2,8.6,14,29.98,7.0,NNW,41.4,56.4,N/A,,Mostly Cloudy,330,2012-10-18 19:43:00
1:50 PM,57.2,6.8,13,29.98,7.0,NW,39.1,51.8,N/A,,Mostly Cloudy,320,2012-10-18 19:50:00
1:53 PM,57.0,8.1,14,29.96,7.0,NW,40.3,51.8,N/A,,Mostly Cloudy,320,2012-10-18 19:53:00
2:40 PM,57.2,6.8,13,29.97,7.0,NNW,38.0,50.6,N/A,,Mostly Cloudy,330,2012-10-18 20:40:00
2:53 PM,59.0,7.0,13,29.95,7.0,NNW,29.9,46.0,N/A,,Mostly Cloudy,330,2012-10-18 20:53:00
3:23 PM,57.2,5.0,12,29.97,8.0,NW,36.8,49.5,N/A,,Mostly Cloudy,320,2012-10-18 21:23:00
3:32 PM,57.2,6.8,13,29.97,9.0,NNW,31.1,44.9,N/A,,Mostly Cloudy,330,2012-10-18 21:32:00
3:46 PM,57.2,3.2,11,29.96,7.0,NW,35.7,51.8,N/A,,Mostly Cloudy,320,2012-10-18 21:46:00
3:53 PM,57.9,3.0,11,29.94,8.0,NNW,36.8,49.5,N/A,,Mostly Cloudy,340,2012-10-18 21:53:00
4:22 PM,57.2,1.4,10,29.97,7.0,NNW,41.4,51.8,N/A,,Scattered Clouds,330,2012-10-18 22:22:00
4:53 PM,55.9,1.9,11,29.96,7.0,NNW,33.4,48.3,N/A,,Partly Cloudy,340,2012-10-18 22:53:00
5:53 PM,53.1,3.0,13,30.01,10.0,NNW,23.0,33.4,N/A,,Clear,340,2012-10-18 23:53:00
6:53 PM,48.9,8.1,19,30.03,10.0,NNW,17.3,-,N/A,,Clear,340,2012-10-19 00:53:00
7:53 PM,48.0,7.0,19,30.02,10.0,North,20.7,-,N/A,,Clear,350,2012-10-19 01:53:00
8:53 PM,46.0,8.1,21,30.00,10.0,NNW,19.6,25.3,N/A,,Clear,340,2012-10-19 02:53:00
9:53 PM,37.9,9.0,30,30.02,10.0,WNW,11.5,-,N/A,,Clear,290,2012-10-19 03:53:00
10:53 PM,41.0,9.0,27,30.01,10.0,NW,11.5,-,N/A,,Clear,310,2012-10-19 04:53:00
11:53 PM,39.0,10.0,30,30.00,10.0,WNW,12.7,-,N/A,,Clear,300,2012-10-19 05:53:00